Flag for Finland Weather past 2 weeks in Lahti, Finland

Now
46 °F

Rain. Low clouds.


Feels Like: 40 °F
Forecast: 37 / 41 °F
Wind: 14 mph from North

Location: Utti

Current Time: Sep 22, 2014 at 5:14:45 PM

Latest Report: Sep 22, 2014 at 4:20 PM


Visibility: N/A

Pressure: 29.62 "Hg

Humidity: 100%

Dew point: 46 °F

Location of LahtiLocation

Historic Weather in Lahti — Graph

°F

Lahti temperature yesterday

Maximum temperature yesterday: 63 °F (at 2:50 PM)
Minimum temperature yesterday: 48 °F (at 6:50 AM)
Average temperature yesterday: 55 °F

Past Weeks' High & Low Weather Summary

 TemperatureHumidityPressure
High70 °F (Sep 8, 5:20 PM)100% (Sep 8, 12:50 AM)30.45 "Hg (Sep 8, 12:50 AM)
Low37 °F (Sep 17, 5:50 AM)37% (Sep 15, 3:50 PM)29.62 "Hg (Sep 22, 5:20 AM)
Average55 °F81%30.18 "Hg
* Reported Sep 7 3:20 PM — Sep 22 3:50 PM, Lahti, Weather by CustomWeather, © 2014

Note: Actual official high and low records may vary slightly from our data, if they occured in-between our weather recording intervals... More about our weather records

Advertising

Lahti weather history for previous 24 hours

 ConditionsComfort  
Time TempWeatherWind HumidityBarometerVisibility
3:50 PM
Sep 22
48 °FRain. Partly sunny.10 mph100%29.62 "HgN/A
3:20 PM48 °FLight rain. Partly sunny.12 mph100%29.62 "HgN/A
2:50 PM50 °FLight rain. Partly sunny.10 mph94%29.62 "HgN/A
2:20 PM50 °FLight rain. Partly sunny.10 mph94%29.62 "HgN/A
1:50 PM50 °FLight rain. Partly sunny.10 mph100%29.62 "Hg5 mi
1:20 PM52 °FSprinkles. Partly sunny.6 mph100%29.62 "Hg6 mi
12:50 PM52 °FRain showers. Partly sunny.5 mph100%29.62 "Hg2 mi
12:20 PM54 °FSprinkles. Partly sunny.6 mph94%29.62 "HgN/A
11:50 AM55 °FBroken clouds.5 mph88%29.62 "HgN/A
11:20 AM54 °FBroken clouds.7 mph94%29.62 "HgN/A
10:50 AM54 °FLight rain. Broken clouds.7 mph94%29.62 "HgN/A
10:20 AM52 °FLight rain. Partly sunny.3 mph94%29.62 "Hg5 mi
9:50 AM50 °FLight rain. Mostly cloudy.5 mph100%29.62 "Hg5 mi
9:20 AM52 °FLight rain. Mostly cloudy.5 mph94%29.62 "HgN/A
8:50 AM50 °FPassing clouds.5 mph100%29.62 "HgN/A
8:20 AM50 °FSunny.3 mph100%29.62 "Hg10 mi
7:50 AM50 °FPassing clouds.5 mph94%29.62 "HgN/A
7:20 AM50 °FPassing clouds.3 mph94%29.62 "HgN/A
6:50 AM50 °FPassing clouds.2 mph94%29.62 "Hg5 mi
6:20 AM48 °FPassing clouds.2 mph100%29.62 "Hg3 mi
5:50 AM48 °FPassing clouds.1 mph100%29.62 "Hg5 mi
5:20 AM48 °FOvercast.No wind100%29.62 "Hg5 mi
4:50 AM50 °FOvercast.2 mph100%29.65 "Hg4 mi
4:20 AM48 °FOvercast.3 mph100%29.65 "Hg4 mi
3:50 AM48 °FFog.2 mph94%29.65 "Hg2 mi
2:50 AM48 °FFog.3 mph94%29.65 "Hg1 mi
2:20 AM48 °FClear.5 mph100%29.65 "Hg3 mi
1:50 AM50 °FClear.2 mph100%29.65 "Hg10 mi
1:20 AM48 °FClear.2 mph100%29.65 "Hg10 mi
12:50 AM48 °FClear.2 mph100%29.68 "Hg10 mi
12:20 AM50 °FClear.3 mph94%29.68 "Hg10 mi
11:50 PM
Sep 21
52 °FClear.5 mph88%29.68 "Hg10 mi
11:20 PM52 °FClear.2 mph88%29.68 "Hg10 mi
10:50 PM52 °FClear.5 mph88%29.68 "Hg10 mi
10:20 PM52 °FClear.5 mph82%29.68 "Hg10 mi
9:50 PM52 °FClear.3 mph88%29.68 "Hg10 mi
9:20 PM52 °FClear.3 mph88%29.71 "Hg10 mi
8:50 PM52 °FClear.3 mph82%29.71 "Hg10 mi
8:20 PM52 °FClear.3 mph82%29.71 "Hg10 mi
7:50 PM54 °FSunny.5 mph82%29.71 "Hg10 mi
7:20 PM55 °FSunny.5 mph77%29.71 "Hg10 mi
6:50 PM57 °FPassing clouds.5 mph72%29.74 "HgN/A
6:20 PM59 °FPassing clouds.7 mph68%29.74 "HgN/A
5:50 PM59 °FPassing clouds.9 mph68%29.74 "HgN/A
5:20 PM61 °FPassing clouds.10 mph59%29.74 "HgN/A
Weather by CustomWeather, © 2014

See weather overviewHow to use our weather pages